Regional Weather Roundup
Issued by NWS

Home | Current Version | Previous Version | Graphics & Text | Print | Product List | Glossary Off
Versions: 1 2 3 4 5 6 7 8 9 10 11 12 13 14 15 16 17 18 19 20 21 22 23 24 25 26 27 28 29 30 31 32 33 34 35 36 37 38 39 40 41 42 43 44 45 46 47 48 49 50

000
ASUS43 KTOP 201108
RWRKS

WEATHER ROUNDUP FOR KANSAS
NATIONAL WEATHER SERVICE GOODLAND KS
500 AM CST TUE FEB 20 2018

NOTE:  "FAIR" INDICATES FEW OR NO CLOUDS BELOW 12,000 FEET WITH NO
SIGNIFICANT WEATHER AND/OR OBSTRUCTIONS TO VISIBILITY.

KSZ001>006-013>018-027>032-041>047-201200-
NORTHWEST KANSAS

CITY           SKY/WX    TMP DP  RH WIND       PRES   REMARKS
GOODLAND       CLOUDY     6   0  76 N20       29.90R WCI -14
HAYS           FLURRIES  14  11  87 N16       29.95R WCI  -2
HILL CITY      CLOUDY    13   6  74 N16G25    29.95F WCI  -3
RUSSELL        LGT SNOW  17  14  88 MISG      29.94R FOG
$$

KSZ061>065-074>080-084>089-201200-
SOUTHWEST KANSAS

CITY           SKY/WX    TMP DP  RH WIND       PRES   REMARKS
DODGE CITY     LGT SNOW  15  11  83 N24G31    29.87F FOG     WCI  -4
ELKHART        FLURRIES  18  15  88 N20       29.85R WCI   2
GARDEN CITY    FLURRIES  12   9  87 N22G30    29.92R WCI  -7
GREAT BEND     MIX PCPN  16  14  92 MISG      29.92R FOG
LIBERAL        MIX PCPN  17  15  92 N24       29.87R WCI  -1
PRATT          CLOUDY    19  17  90 N20       29.88R FOG     WCI   3
$$

KSZ066>073-081>083-090>101-201200-
SOUTHEAST KANSAS

CITY           SKY/WX    TMP DP  RH WIND       PRES   REMARKS
CHANUTE        LGT RAIN  34  33  96 N15       29.80S VSB 1   WCI  24
COFFEYVILLE    CLOUDY    41  41 100 NW8       29.77R FOG
HUTCHINSON     CLOUDY    21  19  92 N17G24    29.88R FOG     WCI   7
MEDICINE LODGE   N/A     22  21  96 N18G35    29.87R WCI   7
NEWTON         CLOUDY    21  20  96 N16       29.85R WCI   7
PARSONS        FOG       38  38 100 N12       29.80R VSB 1   WCI  30
WICHITA INTL   FRZ DRZL  24  23  96 N20G30    29.85R FOG     WCI  10
WICHITA JABRA  FRZ RAIN  24  24 100 N17       29.82S FOG     WCI  11
WICHITA MCCONL TSTM      27  25  93 N9        29.85
WINFIELD       CLOUDY    29  29 100 N16       29.81S FOG     WCI  17
$$

KSZ007>012-019>026-033>040-048>060-102>105-201200-
NORTHEAST KANSAS

CITY           SKY/WX    TMP DP  RH WIND       PRES   REMARKS
CONCORDIA      CLOUDY    18  16  92 NW17      29.94R FOG     WCI   3
EMPORIA        CLOUDY    27  26  96 N13       29.84F FOG     WCI  16
LAWRENCE       CLOUDY    29  29 100 NW6       29.87R FOG
MANHATTAN      CLOUDY    24  21  88 VRB6      29.92S
MARYSVILLE     CLOUDY    23  21  93 NW15      29.92R FOG     WCI  10
OLATHE IND     CLOUDY    29  29 100 NW13      29.84S FOG     WCI  19
OLATHE EXE     CLOUDY    30  30 100 N8        29.84R FOG
SALINA         MIX PCPN  22  20  92 N23       29.94R FOG     WCI   6
TOPEKA BILLARD CLOUDY    29  28  96 NW8       29.87R FOG
TOPEKA FORBES  CLOUDY    29  28  96 N13       29.85R FOG     WCI  19
$$




USA.gov is the U.S. government's official web portal to all federal, state and local government web resources and services.